Regional Weather Roundup
Issued by NWS Little Rock, AR

Home | Current Version | Previous Version | Text Only | Print | Product List | Glossary Off
Versions: 1 2 3 4 5 6 7 8 9 10 11 12 13 14 15 16 17 18 19 20 21 22 23 24 25 26 27 28 29 30 31 32 33 34 35 36 37 38 39 40 41 42 43 44 45 46 47 48 49 50

000
ASUS44 KLZK 241005
RWRLZK

WEATHER ROUNDUP FOR ARKANSAS
NATIONAL WEATHER SERVICE LITTLE ROCK AR
500 AM CDT FRI MAR 24 2017

NOTE: "FAIR" INDICATES FEW OR NO CLOUDS BELOW 12,000 FEET WITH NO
SIGNIFICANT WEATHER AND/OR OBSTRUCTIONS TO VISIBILITY.

ARZ001-003-010-029-241100-
NORTHWEST ARKANSAS

CITY           SKY/WX    TMP DP  RH WIND       PRES   REMARKS
FAYETTEVILLE   CLOUDY    67  41  38 S18G29    29.94R
FORT SMITH     CLOUDY    72  37  28 SW10      29.95R
HARRISON       MOCLDY    67  48  50 S14G24    29.96R
BENTONVILLE    PTCLDY    66  41  39 S10       29.94S
ROGERS         PTCLDY    67  42  40 S17       29.94R
SILOAM SPGS    CLOUDY    64  37  36 S14G22    29.93R
HIGHFILL       PTCLDY    66  42  41 S13       29.93R
$$

ARZ004-005-016-241100-
NORTH CENTRAL ARKANSAS

CITY           SKY/WX    TMP DP  RH WIND       PRES   REMARKS
BATESVILLE     CLOUDY    66  52  59 S8G17     30.00R
FLIPPIN        CLOUDY    70  45  40 S10G21    29.91S
MTN HOME       CLOUDY    68  46  45 SW14G20   29.93F
$$

ARZ040-041-241100-
WEST CENTRAL ARKANSAS

CITY           SKY/WX    TMP DP  RH WIND       PRES   REMARKS
MENA           CLOUDY    68  54  60 SW7       30.00R
MOUNT IDA      PTCLDY    67  51  56 MISG      29.93S
$$

ARZ009-017-025-026-028-241100-
NORTHEAST ARKANSAS

CITY           SKY/WX    TMP DP  RH WIND       PRES   REMARKS
CORNING        FAIR      66  55  68 S14       30.02R
JONESBORO      CLEAR     62  54  74 S10       30.03F
NEWPORT        PTCLDY    63  55  75 S15       30.01S
WALNUT RIDGE   CLEAR     63  52  67 S14       30.01S
BLYTHEVILLE    CLEAR     65  57  75 S13       30.06S
$$

ARZ022-023-033-042-044-241100-
CENTRAL ARKANSAS

CITY           SKY/WX    TMP DP  RH WIND       PRES   REMARKS
LITTLE ROCK    MOCLDY    64  56  75 S6        30.00S
N LITTLE ROCK    N/A     65  55  69 S6        30.00F
JACKSONVILLE   PTCLDY    58  54  84 CALM      30.00S
CONWAY           N/A     68  54  60 S14       29.97F
SEARCY         MOCLDY    63  56  78 S6        30.03S
HOT SPRINGS    CLOUDY    66  53  63 VRB6      29.99F
RUSSELLVILLE   PTCLDY    68  50  52 S7        29.95F
CLINTON        FAIR      63  50  63 SE3       29.98F
$$

ARZ036-241100-
EAST ARKANSAS

CITY           SKY/WX    TMP DP  RH WIND       PRES   REMARKS
WEST MEMPHIS   CLEAR     66  58  75 S15       30.06S
$$

ARZ050-053-066-070-073-241100-
SOUTHWEST ARKANSAS

CITY           SKY/WX    TMP DP  RH WIND       PRES   REMARKS
ARKADELPHIA    FAIR      64  56  75 S10       29.99F
CAMDEN         MOCLDY    66  55  68 S12G18    30.00S
TEXARKANA      MOCLDY    64  56  75 S14G22    29.96S
EL DORADO      CLOUDY    65  59  81 S13       30.01S
DE QUEEN       PTCLDY    64  54  69 W8        29.99R
$$

ARZ056-057-069-241100-
SOUTHEAST ARKANSAS

CITY           SKY/WX    TMP DP  RH WIND       PRES   REMARKS
PINE BLUFF     PTCLDY    67  60  78 S21       30.01F
STUTTGART      PTCLDY    66  52  59 S16       30.03S
MONTICELLO       N/A     66  60  81 S15G22    30.04F

$$





USA.gov is the U.S. government's official web portal to all federal, state and local government web resources and services.